Location: Cosy Dell
(34.2789°N, 117.4537°W)
Time: 00:32:45
(UTC+00:00)

Daily predictions for brighter satellites

Satellite Brightness Start Highest point End
(mag) Time Altitude Azimuth Time Altitude Azimuth Time Altitude Azimuth
Cosmos 1844 Rocket 2.7 03:22:14 10° NNW 03:27:48 69° ENE 03:33:20 10° SSE
SEDSat Delta rocket 4.3 03:23:40 10° SW 03:28:16 33° SSE 03:33:27 10° E
Cosmos 1455 2.4 03:29:27 10° N 03:33:15 54° E 03:37:02 10° SSE
Cosmos 1812 Rocket 3.5 03:29:44 10° N 03:34:05 81° E 03:38:25 10° S
OAO 2 Rocket 3.5 03:29:28 10° W 03:34:41 77° SSW 03:39:58 10° ESE
CZ-2C R/B 3.9 03:29:42 10° S 03:35:12 56° W 03:40:27 10° NNW
Cosmos 2333 Rocket 2.4 03:29:33 10° SSW 03:35:14 84° WNW 03:40:59 10° NNE
Cosmos 1538 Rocket 4.1 03:30:40 10° S 03:35:57 64° ESE 03:41:13 10° NNE
SPOT 3 Rocket 4.3 03:33:29 10° SE 03:38:12 36° ENE 03:42:56 10° N
Cosmos 2084 4.3 03:34:45 10° NNW 03:38:56 38° NE 03:43:01 10° ESE
NOSS 0 Rocket 4.2 03:35:01 10° S 03:40:47 44° ESE 03:46:34 10° NE
DMSP B5D2-2 4.0 03:37:49 10° NNE 03:43:02 74° ESE 03:48:13 10° S
Cosmos 2278 Rocket 3.9 03:40:51 10° NNE 03:44:44 18° ENE 03:48:35 10° E
BREEZE-M DEB (TANK) 4.1 03:47:40 10° NW 03:50:59 33° NNE 03:54:42 10° E
MONITOR-E 3.4 03:48:54 10° SSE 03:51:20 78° E 03:53:47 10° N
Genesis I 3.2 03:48:58 10° SSW 03:52:51 88° WNW 03:56:46 10° NNE
SL-16 R/B 3.9 03:51:42 11° ESE 03:52:54 12° E 03:54:42 10° ENE
H-2A ROCKET BODY 3.1 03:56:20 10° WSW 03:59:58 40° S 04:09:41 14° ESE
Ariane Rocket 3.8 03:56:34 10° S 04:01:31 53° W 04:06:30 10° NNW
BREEZE-M (TANK) 3.3 04:00:32 10° SSW 04:03:15 39° ESE 04:10:15 10° NE
FREGAT/IRIS 4.2 04:01:09 10° SSW 04:03:31 29° W 04:05:54 10° NW
CZ-3A R/B 4.2 03:56:02 10° SW 04:08:41 22° S 04:12:44 15° SE
Alouette 2 Rocket 4.4 04:06:36 10° N 04:11:33 74° E 04:19:20 10° SSE
Cosmos 1315 Rocket 3.6 04:12:02 10° N 04:15:53 37° ENE 04:17:51 23° SE
CZ-2C R/B 4.3 04:11:54 10° N 04:16:38 63° WNW 04:21:17 10° SSW
MetOp-A 4.4 04:11:34 10° S 04:16:53 69° WSW 04:22:14 10° NNW
ISS -3.4 04:18:35 10° SSW 04:21:46 41° SE 04:24:57 10° ENE
Cosmos 2074 Rocket 4.5 04:19:32 17° SSE 04:23:51 40° E 04:29:34 10° NNE
Cosmos 44 2.9 04:22:14 10° SSW 04:26:27 60° ESE 04:30:44 10° NE
Cosmos 1400 Rocket 3.8 04:23:59 10° NNW 04:27:41 43° W 04:31:20 10° SSW
Cosmos 1980 3.7 04:23:50 10° SSW 04:29:28 89° WNW 04:35:09 10° NNE
Cosmos 1680 Rocket 3.5 04:24:43 10° S 04:29:58 64° ESE 04:35:13 10° NNE
Cosmos 1892 3.7 04:31:28 26° E 04:31:35 26° E 04:34:49 10° NNE
DELTA 2 R/B (1) 4.4 04:26:54 10° WNW 04:32:17 48° N 04:37:42 10° ENE
Cosmos 2219 Rocket 4.4 04:30:56 10° WSW 04:35:35 27° WNW 04:40:18 10° N
CZ-2C R/B 4.4 04:31:52 10° N 04:36:31 32° WNW 04:41:04 10° SW
Atlas Centaur 2 3.5 04:34:16 10° WSW 04:37:44 20° SSW 04:39:15 18° S
Geosat 4.5 04:36:09 27° ESE 04:38:30 47° ENE 04:43:18 10° NNW
Cosmos 2181 Rocket 3.9 04:36:21 10° N 04:42:36 82° E 04:46:46 22° S
ATLAS CENTAUR R/B 2.3 04:39:37 10° NW 04:42:58 35° WSW 04:44:35 23° SSW
Cosmos 158 Rocket 3.7 04:40:24 10° SSW 04:45:15 84° ESE 04:50:10 10° NNE
Cosmos 2237 Rocket 2.5 04:40:00 10° SSW 04:45:39 69° WNW 04:51:21 10° NNE
Landsat 7 4.1 04:46:28 35° SE 04:48:04 51° ENE 04:52:40 10° N
Resurs 01 Rocket 2.0 04:46:25 22° S 04:49:07 58° W 04:53:27 10° NNW
Meteor 2-17 Rocket 4.5 04:46:51 27° SSE 04:50:06 57° E 04:56:00 10° NNE
OAO 3 Copernicus 4.3 04:48:09 10° W 04:53:15 82° N 04:55:51 29° E
BREEZE-M R/B 4.3 04:41:50 10° NW 04:53:20 88° SW 04:55:57 35° SE
Gblst 52 Del rocket 4.3 04:47:39 10° NW 04:53:22 87° NE 04:56:10 35° SE
Gbstr 26 Del rocket 4.4 04:50:44 10° WSW 04:54:15 33° NW 04:57:40 10° NNE
ERS-1 Rocket 3.8 04:56:29 32° E 04:57:32 35° ENE 05:02:05 10° N
Hubble Space Telescope 1.8 04:55:36 10° WSW 04:58:45 30° SSW 04:58:45 30° SSW
Cosmos 1825 4.1 05:00:46 18° ENE 05:00:46 18° ENE 05:02:17 10° NE
NOSS 3-4 (A) 4.2 04:52:48 10° NNW 04:59:52 56° NE 05:03:32 31° ESE
NOSS 3-4 (C) 4.2 04:52:55 10° NNW 04:59:59 55° NE 05:03:38 31° ESE
Cosmos 1842 Rocket 3.4 04:56:09 10° N 05:00:29 78° E 05:01:26 53° SSE
Cosmos 1408 3.7 05:04:55 30° NE 05:04:55 30° NE 05:07:11 10° NNE
SPOT 1/Viking Rocket 3.5 05:07:05 47° SE 05:08:29 69° ENE 05:13:39 10° N
TSX-5 4.1 05:04:53 10° NNW 05:09:02 83° WSW 05:10:13 52° SSE
Cosmos 2221 2.4 05:07:25 10° N 05:11:47 88° E 05:12:22 66° S
Cosmos 1869 3.2 05:08:44 10° N 05:12:48 88° W 05:13:08 74° S
USA 245 3.4 05:12:46 62° SSW 05:13:20 75° W 05:18:01 10° NNW
SEDSat Delta rocket 3.7 05:08:44 10° WSW 05:14:17 63° S 05:16:00 45° ESE
CARTOSAT-1 3.9 05:15:18 49° ENE 05:15:18 49° ENE 05:19:28 10° N
Mugunghwa Rocket 4.4 05:10:20 10° WSW 05:16:22 41° S 05:16:45 41° SSE
Cosmos 2151 4.2 05:20:18 30° ENE 05:20:18 30° ENE 05:23:01 10° NNE
OAO 2 Rocket 4.4 05:14:37 10° W 05:19:12 31° SSW 05:19:15 31° SSW
SPOT 5 3.1 05:21:08 51° E 05:21:25 51° ENE 05:25:57 10° N
Meteor 2-2 Rocket 4.2 05:20:29 10° NNW 05:26:11 77° W 05:27:51 47° S
ATLAS 2AS CENTAUR R/B 2.7 05:19:51 10° NNW 05:27:15 76° ENE 05:29:20 48° SE
SAR-Lupe-2 4.3 05:24:01 10° N 05:27:30 50° WNW 05:27:37 50° W
Cosmos 2278 Rocket 2.6 05:23:38 10° NNW 05:29:09 55° WSW 05:30:45 41° SSW
USA 215 3.2 05:25:40 10° NE 05:32:05 56° SE 05:33:37 46° S
IGS 5A 4.3 05:32:57 40° WSW 05:33:24 42° W 05:37:20 10° NNW
Cosmos 1076 Rocket 4.0 05:33:35 48° WSW 05:34:12 53° W 05:38:23 10° N
Terra 2.2 05:35:48 50° ENE 05:35:48 50° ENE 05:40:10 10° N
Cosmos 2344 4.0 05:28:32 10° SW 05:36:05 60° NW 05:43:42 10° NNE
SL-16 R/B 2.3 05:33:28 31° SSW 05:36:14 74° WNW 05:41:56 10° NNE
GEOS 3 Rocket 3.6 05:32:01 10° NNE 05:37:27 85° WNW 05:39:54 34° SW
Cosmos 2297 4.1 05:35:14 10° N 05:40:44 46° ENE 05:41:08 46° ENE
Spot 2 Rocket 4.4 05:39:48 34° SW 05:41:10 41° W 05:45:59 10° NNW
Cosmos 1371 Rocket 3.9 05:38:36 10° NNW 05:43:56 89° ENE 05:44:12 82° SSE
Cosmos 2058 4.5 05:46:03 27° WSW 05:47:01 30° W 05:50:40 10° NNW
BREEZE-M DEB (TANK) 3.7 05:48:59 31° NNW 05:48:59 31° NNW 05:52:45 10° NE
Cosmos 2218 Rocket 4.5 05:54:36 44° E 05:54:36 44° E 06:00:11 10° NNE
ISS -0.9 05:56:12 10° W 05:58:40 19° NNW 06:01:07 10° NNE
Cosmos 2056 Rocket 3.7 06:01:34 10° NNW 06:06:49 65° W 06:06:49 65° W
Nadezhda 3 Rocket 4.3 06:05:33 10° NNW 06:11:43 57° W 06:12:43 51° SW
Cosmos 1603 4.5 06:14:00 41° NE 06:14:00 41° NE 06:17:55 10° NNE
Lacrosse 5 rocket 3.6 06:11:48 10° N 06:13:51 19° NNE 06:13:51 19° NNE
Cosmos 2369 Rocket 3.5 06:10:16 10° N 06:14:52 28° ENE 06:14:52 28° ENE
SL-8 Rocket 3.8 06:17:09 85° ENE 06:17:09 85° ENE 06:23:15 10° N
DELTA 2 R/B (1) 3.8 06:13:35 10° WNW 06:18:39 69° NNW 06:18:39 69° NNW
Cosmos 2341 Rocket 4.4 06:27:53 52° WSW 06:28:38 55° W 06:34:44 10° N
VEP-3 4.3 06:23:07 10° WSW 06:46:53 15° SE 06:54:07 10° ESE
Cosmos 1452 Rocket 4.1 06:27:56 10° NNW 06:32:00 52° N 06:32:00 52° N
Cosmos 1943 Rocket 2.6 06:36:47 10° NNW 06:41:24 58° N 06:41:24 58° N
Lacrosse 5 4.1 06:47:13 16° NE 06:47:13 16° NE 06:48:13 10° NE
Meteor 2-3 Rocket 4.1 06:46:55 60° NW 06:46:55 60° NW 06:51:51 10° N
Cosmos 1727 Rocket 4.3 06:41:23 10° N 06:46:48 56° NE 06:46:48 56° NE
COSMOS 2455 3.3 06:54:45 10° NNW 06:59:34 56° NW 06:59:34 56° NW
Cosmos 1943 3.9 07:06:59 51° NNW 07:06:59 51° NNW 07:11:33 10° NNE
Terra 4.4 07:14:41 12° WNW 07:14:41 12° WNW 07:15:45 10° WNW
USA 215 4.4 07:08:55 10° NNE 07:14:51 39° NW 07:20:47 10° WSW
Cosmos 1607 4.3 07:16:21 60° N 07:16:21 60° N 07:21:30 10° NNE
CZ-4C R/B 3.0 07:19:19 10° NNW 07:26:59 82° ENE 07:27:08 81° ENE
Cosmos 1821 Rocket 4.5 07:40:08 53° NNW 07:40:08 53° NNW 07:45:00 10° N
USA 267 4.1 07:41:27 38° ENE 07:43:01 45° NE 07:49:10 10° NNW
Cosmos 2123 Rocket 4.5 07:47:49 10° N 07:52:43 54° NNE 07:52:43 54° NNE
Cosmos 2369 Rocket 3.9 07:54:03 10° NW 07:56:38 24° WNW 07:56:38 24° WNW
Cosmos 1605 Rocket 4.4 08:10:37 60° NNE 08:10:37 60° NNE 08:15:41 10° N
Resurs 1-4 Rocket 4.3 08:14:34 10° NE 08:16:39 16° ENE 08:16:39 16° ENE
Lacrosse 5 3.8 08:26:22 23° NW 08:26:27 23° NW 08:30:29 10° NNE
Iridium 4 Rocket 4.4 08:43:09 49° NNW 08:43:09 49° NNW 08:47:04 10° N
SL-16 R/B 3.5 08:57:24 35° E 08:58:46 39° ENE 09:04:29 10° N
SeaSat 1 3.8 09:00:44 10° NE 09:03:54 32° ENE 09:03:54 32° ENE
Cosmos 2082 Rocket 3.5 09:09:56 31° E 09:09:56 31° E 09:14:24 10° NE
Cosmos 1140 Rocket 4.3 09:12:15 48° NE 09:12:15 48° NE 09:16:11 10° NNE
Cosmos 1833 Rocket 3.2 09:13:22 53° ENE 09:13:22 53° ENE 09:17:57 10° NNE
Cosmos 407 Rocket 4.1 09:16:14 56° N 09:16:14 56° N 09:20:26 10° NNE
Aureole 1 Rocket 4.5 09:16:26 38° NE 09:16:26 38° NE 09:20:14 10° NNE
CZ-2D R/B 2.6 09:11:11 10° NNE 09:15:43 57° ENE 09:15:43 57° ENE
COSMOS 2406 3.5 09:19:57 65° NNW 09:19:57 65° NNW 09:24:59 10° NNE
Cosmos 1656 4.3 09:17:38 10° N 09:22:53 48° ENE 09:23:19 47° E
USA 267 4.3 09:28:46 30° WNW 09:28:46 30° WNW 09:32:10 10° NW
Cosmos 2100 Rocket 4.2 09:28:45 58° WNW 09:28:45 58° WNW 09:34:30 10° N
Cosmos 1459 Rocket 4.2 09:35:24 54° WNW 09:35:24 54° WNW 09:40:59 10° N
Cosmos 676 Rocket 4.2 09:38:07 65° ENE 09:38:07 65° ENE 09:42:49 10° NNE
Cosmos 2233 Rocket 4.5 09:38:04 45° ESE 09:39:11 50° E 09:45:11 10° NNE
Cosmos 2346 Rocket 4.5 09:33:24 10° N 09:39:32 72° E 09:40:11 66° SE
UNK 4.4 09:44:48 51° N 09:44:48 51° N 09:48:16 10° NNW
ARIANE 5 R/B 4.3 09:39:41 10° NE 09:43:39 22° E 09:44:49 21° ESE
Cosmos 1802 Rocket 4.2 09:47:10 56° W 09:47:13 56° W 09:53:32 10° N
AQUA 4.1 09:46:42 10° N 09:50:48 65° N 09:50:48 65° N
ADEOS II 2.5 09:47:44 10° NNE 09:52:53 53° E 09:53:17 52° ESE
BREEZE-M DEB (TANK) 4.4 09:53:02 56° WSW 09:54:32 79° NW 10:16:29 10° NE
NPP 3.8 09:51:11 10° N 09:56:19 61° WNW 09:56:19 61° WNW
Resurs 1-4 Rocket 2.6 09:52:56 10° N 09:57:43 47° WNW 09:57:43 47° WNW
Cosmos 1536 3.6 10:01:30 50° NNE 10:01:30 50° NNE 10:04:34 10° N
Okean 3 4.2 09:58:09 10° N 10:01:16 49° N 10:01:16 49° N
Cosmos 1725 Rocket 4.0 10:04:33 58° WSW 10:05:01 59° W 10:11:11 10° N
ATLAS 5 CENTAUR R/B 4.3 10:07:54 10° N 10:13:02 29° NE 10:18:44 10° ESE
IRS-P3 Rocket 4.5 10:10:17 10° NNE 10:15:34 87° ESE 10:16:19 67° S
Cosmos 1241 Rocket 4.4 10:13:10 10° NNW 10:19:39 80° WSW 10:23:09 30° SSE
Cosmos 921 Rocket 3.5 10:15:30 10° N 10:19:48 56° ENE 10:20:45 45° ESE
CENTAUR R/B 4.3 10:17:11 12° SE 10:20:07 18° ESE 10:24:07 10° ENE
Cosmos 1980 Rocket 3.3 10:15:13 10° N 10:20:37 43° ENE 10:25:59 10° SE
Cosmos 2369 3.8 10:15:01 10° NNW 10:20:45 78° ENE 10:23:57 27° SSE
IRS-P3 4.0 10:21:50 10° NNE 10:27:11 86° WNW 10:28:22 56° SSW
Cosmos 2221 Rocket 4.0 10:22:59 10° NNW 10:26:37 48° WNW 10:26:37 48° WNW
Tsikada Rocket 4.0 10:21:02 10° NNW 10:27:22 64° W 10:29:04 47° SSW
IDEFIX/ARIANE 42P 3.8 10:23:06 10° NNE 10:27:50 35° E 10:30:35 21° SSE
H-2A R/B (2) 3.5 10:31:46 17° SE 10:31:46 17° SE 10:32:47 10° ESE
Meteor 2-11 Rocket 4.3 10:28:52 43° S 10:31:03 87° E 10:37:09 10° N
Cosmos 1378 Rocket 4.4 10:27:09 10° N 10:31:26 49° E 10:33:31 27° SE
ERBS 4.3 10:31:59 21° ESE 10:31:59 21° ESE 10:34:05 10° ENE
Meteor 1-11 Rocket 4.2 10:36:43 38° W 10:37:20 39° WNW 10:42:30 10° N
Cosmos 2278 3.8 10:35:19 10° NNW 10:41:03 76° ENE 10:46:45 10° SSE
Cosmos 1666 4.5 10:42:28 20° NW 10:42:28 20° NW 10:44:29 10° NNW
SL-16 R/B 3.5 10:42:29 28° W 10:42:29 28° W 10:47:38 10° NW
SeaSat 1 3.9 10:38:50 10° N 10:42:37 23° NW 10:43:40 21° WNW
COBE Rocket 3.8 10:41:22 48° SSW 10:42:39 69° W 10:47:35 10° NNW
ERS-1 4.4 10:38:59 10° NNE 10:44:03 85° WNW 10:45:38 45° SSW
OAO 1 4.4 10:43:29 45° WSW 10:45:14 80° SSE 10:50:46 10° E
Cosmos 1464 Rocket 4.3 10:43:00 22° S 10:47:12 68° E 10:53:32 10° NNE
Cosmos 1697 Rocket 2.8 10:43:05 10° NNW 10:48:33 53° WSW 10:50:20 38° SSW
CZ-2D R/B 3.6 10:46:37 10° NNE 10:50:57 74° ESE 10:52:21 41° S
IRS-1D 4.4 10:46:49 10° N 10:51:06 30° WNW 10:51:52 29° W
Cosmos 1544 3.5 10:51:41 40° SSE 10:52:38 55° E 10:56:09 10° NNE
ISS -0.4 10:51:21 10° N 10:53:11 14° NNE 10:55:01 10° ENE
Cosmos 1763 Rocket 4.2 10:48:13 10° N 10:53:24 54° ENE 10:58:34 10° SSE
Cosmos 2082 Rocket 3.3 10:51:47 26° W 10:53:24 31° WNW 10:58:25 10° N
CZ-2D R/B 4.1 10:53:16 10° NNW 10:55:59 14° WNW 10:57:02 13° WNW
Cosmos 1674 Rocket 3.5 10:52:23 10° NNW 10:56:40 59° W 10:57:34 47° SW
Cosmos 1833 Rocket 4.5 10:55:03 15° WNW 10:56:46 17° NW 11:00:18 10° NNW
Cosmos 2034 Rocket 4.5 10:52:55 13° SSE 10:58:14 57° E 11:04:15 10° NNE
Cosmos 1743 2.8 10:58:01 52° WSW 10:58:20 54° W 11:02:05 10° N
Cosmos 1782 Rocket 3.9 10:58:58 25° S 11:01:25 66° E 11:05:49 10° NNE
Cosmos 468 Rocket 4.0 10:59:54 10° NNW 11:05:15 84° ENE 11:10:33 10° SSE
Cosmos 1072 Rocket 4.4 11:02:37 25° SSW 11:06:32 76° W 11:12:47 10° N
Meteor 1-23 Rocket 4.4 11:02:53 10° NNW 11:08:28 52° W 11:11:43 24° SSW
NOSS 3-2 (C) 3.7 11:06:03 22° S 11:09:32 55° ESE 11:15:27 10° NE
Landsat 5 4.4 11:09:25 10° SSE 11:13:11 45° ENE 11:16:53 10° N
Cosmos 1908 Rocket 4.0 11:11:48 34° SW 11:13:11 45° W 11:17:29 10° N
Cosmos 1242 Rocket 2.4 11:11:33 10° NNW 11:14:59 62° W 11:16:11 36° SSW
SL-08 R/B 3.7 11:16:10 27° SSW 11:18:15 43° W 11:22:50 10° NNW
Cosmos 841 Rocket 4.4 11:16:17 10° N 11:21:19 49° ENE 11:26:19 10° SE
NOSS 3-2 (A) 3.3 11:18:25 26° SW 11:21:38 68° WNW 11:27:48 10° NNE
ARIANE 5 R/B 3.3 11:18:09 10° N 11:22:45 35° WNW 11:25:10 23° WSW
Meteor 2-9 Rocket 4.0 11:18:40 17° S 11:22:51 89° W 11:28:13 10° N
Cosmos 2322 Rocket 4.0 11:19:24 10° N 11:24:31 34° ENE 11:29:37 10° SE
Sich 1 Rocket 3.7 11:22:35 14° S 11:26:28 79° E 11:31:00 10° N
Cosmos 1378 3.8 11:24:31 10° NNW 11:27:58 35° W 11:29:11 27° SW
CSL-04 DEB 4.4 11:26:35 12° S 11:30:20 59° WSW 11:34:23 10° NNW
CZ-4B R/B 4.4 11:28:37 10° ESE 11:31:11 20° ENE 11:33:47 10° NNE
ADEOS II 3.9 11:28:55 10° NNW 11:32:05 16° WNW 11:34:13 13° W
Cosmos 1818 3.6 11:27:31 10° NNW 11:33:00 85° ENE 11:38:25 10° SSE
deb Chang Zheng 4 4.4 11:32:46 10° NNE 11:36:56 50° E 11:41:05 10° S
SL-27 R/B 3.6 11:42:13 20° WSW 11:43:46 28° WNW 11:46:50 10° N
CZ-4C R/B 3.0 11:42:59 11° S 11:46:00 47° W 11:49:06 10° NNW
Cosmos 1975 3.8 11:44:42 18° SW 11:46:49 29° W 11:50:20 10° NNW
Cosmos 1975 Rocket 3.1 11:43:51 10° NNW 11:48:16 66° W 11:52:40 10° S
H-2A R/B 2.3 11:44:04 10° S 11:48:22 51° W 11:52:35 10° NNW
CZ-2C R/B 3.9 11:48:22 10° N 11:51:55 30° WNW 11:54:41 14° SW
PSLV R/B 3.5 11:49:13 10° N 11:53:33 76° WNW 11:57:53 10° SSW
